GW3523 Weather Reports


time (UTC)temp
F
wind
direction
speed
knots
gust
knots
rain 1hr
in
rain 24hr
in
rain mn
in
humidity
%
barometer
mb
20260504100125 37 283 0.0 0.0 0.00 0.00 0.00 84 1012.6
20260504081518 43 285 0.9 1.7 0.00 0.00 0.00 67 1012.9
20260504081013 44 311 0.9 1.7 0.00 0.00 0.00 66 1013.0
20260504080510 44 301 0.9 0.9 0.00 0.00 0.00 65 1012.9
20260504050311 44 305 1.7 1.7 0.00 0.00 0.00 67 1012.7
20260504045808 44 283 0.9 0.9 0.00 0.00 0.00 66 1012.9
20260504045304 44 270 0.0 0.0 0.00 0.00 0.00 67 1012.9
20260504044800 43 269 0.0 0.0 0.00 0.00 0.00 68 1012.9
20260504044258 42 271 0.0 0.0 0.00 0.00 0.00 73 1013.1
20260504043755 42 266 0.0 0.0 0.00 0.00 0.00 74 1012.9
20260504043251 42 258 0.0 0.0 0.00 0.00 0.00 73 1013.0
20260504042750 43 264 0.0 0.0 0.00 0.00 0.00 70 1012.8
20260504042245 42 292 0.9 0.9 0.00 0.00 0.00 72 1012.7
20260504041742 42 265 0.0 0.0 0.00 0.00 0.00 72 1012.8
20260504041238 42 267 0.0 0.0 0.00 0.00 0.00 72 1012.8
20260504040734 43 271 0.0 0.0 0.00 0.00 0.00 70 1012.5
20260504040232 44 262 0.0 0.0 0.00 0.00 0.00 69 1012.6
20260504035728 44 265 0.0 0.0 0.00 0.00 0.00 68 1012.7
20260504035225 44 266 0.0 0.0 0.00 0.00 0.00 66 1012.6
20260504034723 43 261 0.0 0.0 0.00 0.00 0.00 69 1012.7
20260504034220 43 264 0.0 0.0 0.00 0.00 0.00 69 1012.4
20260504033717 44 271 0.0 0.0 0.00 0.00 0.00 69 1012.6
20260504033215 44 275 0.0 0.0 0.00 0.00 0.00 66 1012.5
20260504032711 45 259 0.0 0.0 0.00 0.00 0.00 63 1012.5
20260504032209 45 285 0.0 0.9 0.00 0.00 0.00 62 1012.5
20260504031705 46 271 0.0 0.0 0.00 0.00 0.00 62 1012.5
20260504031202 46 279 0.9 0.9 0.00 0.00 0.00 60 1012.5
20260504030658 46 281 0.0 0.0 0.00 0.00 0.00 59 1012.5
20260504030156 46 284 0.9 0.9 0.00 0.00 0.00 59 1012.6
20260504025652 47 276 0.0 0.0 0.00 0.00 0.00 59 1012.5
20260504025149 47 290 0.9 0.9 0.00 0.00 0.00 58 1012.4
20260504024646 47 290 0.0 0.0 0.00 0.00 0.00 58 1012.6
20260504024142 47 269 0.0 0.0 0.00 0.00 0.00 58 1012.4
20260504023639 47 264 0.0 0.0 0.00 0.00 0.00 57 1012.4
20260504023135 48 280 0.0 0.0 0.00 0.00 0.00 56 1012.4
20260504022632 48 274 0.0 0.0 0.00 0.00 0.00 57 1012.4
20260504022127 48 271 0.9 1.7 0.00 0.00 0.00 56 1012.5
20260504021626 49 284 0.0 0.9 0.00 0.00 0.00 55 1012.7
20260504021122 48 283 0.0 0.0 0.00 0.00 0.00 54 1012.6
20260504020619 49 268 0.0 0.9 0.00 0.00 0.00 54 1012.5
20260504020115 49 272 0.0 0.0 0.00 0.00 0.00 54 1012.4
20260504015612 49 280 0.0 0.0 0.00 0.00 0.00 52 1012.5
20260504015108 49 292 0.9 0.9 0.00 0.00 0.00 53 1012.4
20260504014604 49 276 0.0 0.0 0.00 0.00 0.00 52 1012.4
20260504014102 49 270 0.0 0.0 0.00 0.00 0.00 52 1012.2
20260504013559 49 267 0.9 0.9 0.00 0.00 0.00 52 1012.2
20260504013056 49 272 0.0 0.0 0.00 0.00 0.00 52 1012.3
20260504012553 50 276 0.0 0.9 0.00 0.00 0.00 51 1012.3
20260504012051 49 263 0.0 0.0 0.00 0.00 0.00 52 1012.3
20260504011547 49 265 0.0 0.0 0.00 0.00 0.00 52 1012.1
20260504011044 49 278 0.0 0.0 0.00 0.00 0.00 53 1012.0
20260504010539 50 274 0.0 0.0 0.00 0.00 0.00 51 1011.9
20260504010036 50 276 0.0 0.0 0.00 0.00 0.00 50 1012.2
20260504005532 50 248 0.9 0.9 0.00 0.00 0.00 49 1012.3
20260504005030 50 275 0.0 0.0 0.00 0.00 0.00 50 1011.9
20260504004528 50 270 0.0 0.0 0.00 0.00 0.00 49 1011.9
20260504004024 50 273 0.0 0.0 0.00 0.00 0.00 48 1011.9
20260504003520 50 264 0.0 0.0 0.00 0.00 0.00 50 1012.0
20260504003018 50 276 0.0 0.0 0.00 0.00 0.00 50 1011.9
20260504002514 51 271 0.0 0.0 0.00 0.00 0.00 49 1011.5
20260504002006 51 261 0.0 0.0 0.00 0.00 0.00 48 1011.7
20260504001503 51 268 0.0 0.0 0.00 0.00 0.00 47 1011.8
20260504000959 51 272 0.0 0.0 0.00 0.00 0.00 47 1011.6
20260504000457 52 271 0.0 0.0 0.00 0.00 0.00 47 1011.6
20260503235954 52 272 0.0 0.0 0.00 0.00 0.00 48 1011.7
20260503235452 52 272 0.0 0.0 0.00 0.00 0.00 47 1011.5
20260503234949 53 264 0.0 0.0 0.00 0.00 0.00 47 1011.4
20260503234446 53 275 0.0 0.0 0.00 0.00 0.00 47 1011.5
20260503233945 53 250 0.0 0.0 0.00 0.00 0.00 47 1011.5
20260503233440 53 271 0.9 0.9 0.00 0.00 0.00 45 1011.5
20260503232937 53 266 0.0 0.0 0.00 0.00 0.00 45 1011.2
20260503232434 54 258 0.0 0.0 0.00 0.00 0.00 46 1011.3
20260503231932 55 259 0.0 0.0 0.00 0.00 0.00 44 1011.3
20260503231429 55 269 0.0 0.0 0.00 0.00 0.00 43 1011.2
20260503230926 55 275 0.0 0.0 0.00 0.00 0.00 42 1011.2
20260503230422 55 259 0.0 0.0 0.00 0.00 0.00 42 1011.2
20260503225920 55 318 0.0 0.9 0.00 0.00 0.00 41 1011.4
20260503225417 56 244 0.0 0.0 0.00 0.00 0.00 41 1011.4
20260503224912 56 274 0.0 0.0 0.00 0.00 0.00 40 1011.2
20260503224409 55 239 0.0 0.9 0.00 0.00 0.00 42 1011.3
20260503223907 56 265 0.0 0.9 0.00 0.00 0.00 38 1011.0
20260503223405 57 256 0.0 0.0 0.00 0.00 0.00 39 1011.2
20260503222900 57 269 0.0 0.0 0.00 0.00 0.00 38 1011.2
20260503222359 57 263 0.0 0.9 0.00 0.00 0.00 38 1011.2
20260503221856 57 194 0.0 0.0 0.00 0.00 0.00 40 1011.3
20260503221355 58 273 0.0 0.0 0.00 0.00 0.00 39 1011.1
20260503220850 57 218 0.0 0.9 0.00 0.00 0.00 39 1011.2
20260503220347 57 236 0.0 0.9 0.00 0.00 0.00 39 1010.9
20260503215844 58 247 0.0 0.9 0.00 0.00 0.00 40 1011.1
20260503215342 59 262 0.9 0.9 0.00 0.00 0.00 38 1011.3
20260503214839 59 255 0.0 0.9 0.00 0.00 0.00 36 1011.1
20260503214336 57 263 0.0 0.0 0.00 0.00 0.00 40 1011.0
20260503213833 59 251 0.9 1.7 0.00 0.00 0.00 38 1011.2
20260503213331 61 267 0.9 0.9 0.00 0.00 0.00 34 1010.9
20260503212828 60 273 0.0 0.9 0.00 0.00 0.00 37 1011.0
20260503212326 62 268 0.0 0.0 0.00 0.00 0.00 36 1010.9
20260503211823 62 254 0.9 0.9 0.00 0.00 0.00 34 1010.9
20260503211319 62 226 1.7 2.6 0.00 0.00 0.00 36 1010.9
20260503210819 62 242 0.9 0.9 0.00 0.00 0.00 38 1010.8
20260503210317 61 245 0.0 0.9 0.00 0.00 0.00 35 1010.8
20260503205812 62 339 1.7 2.6 0.00 0.00 0.00 33 1010.9
20260503205309 62 241 1.7 1.7 0.00 0.00 0.00 34 1010.8
20260503204805 62 260 0.0 0.9 0.00 0.00 0.00 32 1010.9
20260503204303 62 164 1.7 2.6 0.00 0.00 0.00 34 1010.7
20260503203800 62 246 0.0 0.9 0.00 0.00 0.00 33 1010.8
20260503203257 62 284 0.9 0.9 0.00 0.00 0.00 33 1011.2
20260503202754 63 297 0.9 0.9 0.00 0.00 0.00 34 1010.9
20260503202252 63 248 0.0 0.9 0.00 0.00 0.00 33 1011.1
20260503201750 63 242 0.0 0.0 0.00 0.00 0.00 34 1010.9
20260503201247 63 182 1.7 2.6 0.00 0.00 0.00 31 1011.0
20260503200744 61 254 0.0 0.0 0.00 0.00 0.00 35 1010.9
20260503200240 59 222 0.0 0.9 0.00 0.00 0.00 35 1010.9
20260503195737 59 186 1.7 1.7 0.00 0.00 0.00 35 1011.1
20260503195233 59 236 0.9 0.9 0.00 0.00 0.00 36 1011.2
20260503194732 58 324 2.6 2.6 0.00 0.00 0.00 38 1011.2
20260503194226 60 155 2.6 2.6 0.00 0.00 0.00 34 1011.4
20260503193723 61 275 0.9 1.7 0.00 0.00 0.00 32 1011.6
20260503193219 60 257 0.9 1.7 0.00 0.00 0.00 34 1011.6
20260503192715 58 267 0.0 0.9 0.00 0.00 0.00 35 1011.7
20260503192211 57 96 0.0 0.9 0.00 0.00 0.00 37 1011.7
20260503191708 57 287 0.9 1.7 0.00 0.00 0.00 35 1011.6
20260503191205 59 313 0.0 0.9 0.00 0.00 0.00 33 1011.6
20260503190702 60 275 1.7 2.6 0.00 0.00 0.00 35 1011.7
20260503190158 60 225 0.9 0.9 0.00 0.00 0.00 36 1011.8
20260503185655 60 234 0.9 0.9 0.00 0.00 0.00 32 1011.9
20260503185150 60 251 0.9 0.9 0.00 0.00 0.00 34 1012.0
20260503184645 59 88 0.9 1.7 0.00 0.00 0.00 37 1012.0
20260503184142 60 255 0.0 0.9 0.00 0.00 0.00 37 1012.1
20260503183638 61 147 0.9 1.7 0.00 0.00 0.00 34 1012.0
20260503183136 60 213 0.9 1.7 0.00 0.00 0.00 36 1012.1
20260503182634 59 314 0.9 1.7 0.00 0.00 0.00 34 1012.3
20260503182132 58 254 0.9 0.9 0.00 0.00 0.00 37 1012.4
20260503181629 58 226 0.9 1.7 0.00 0.00 0.00 38 1012.3
20260503181125 57 168 0.9 2.6 0.00 0.00 0.00 42 1012.2
20260503180622 56 169 0.9 1.7 0.00 0.00 0.00 41 1012.3
20260503180120 57 309 0.0 0.9 0.00 0.00 0.00 38 1012.5
20260503175617 57 233 0.0 0.9 0.00 0.00 0.00 35 1012.4
20260503175114 57 255 0.0 1.7 0.00 0.00 0.00 39 1012.4
20260503174611 57 177 1.7 2.6 0.00 0.00 0.00 40 1012.5
20260503174108 57 265 1.7 1.7 0.00 0.00 0.00 35 1012.8
20260503173603 57 245 0.0 0.9 0.00 0.00 0.00 37 1012.7
20260503173059 55 230 1.7 1.7 0.00 0.00 0.00 36 1012.8
20260503172557 55 261 1.7 1.7 0.00 0.00 0.00 40 1012.9
20260503172054 56 143 1.7 2.6 0.00 0.00 0.00 38 1012.8
20260503171550 55 225 0.0 0.0 0.00 0.00 0.00 41 1012.8
20260503171048 54 250 0.9 0.9 0.00 0.00 0.00 36 1012.8
20260503170544 53 167 0.0 0.9 0.00 0.00 0.00 39 1013.1
20260503150925 48 318 2.6 2.6 0.00 0.00 0.00 48 1013.5
20260503150421 50 247 0.0 0.9 0.00 0.00 0.00 42 1013.7
20260503131314 46 227 0.9 1.7 0.00 0.00 0.00 61 1013.9
20260503130812 46 285 0.9 1.7 0.00 0.00 0.00 62 1014.3
20260503130309 47 257 0.0 0.9 0.00 0.00 0.00 61 1014.2
20260503110703 39 259 0.0 0.0 0.00 0.00 0.00 74 1013.5
20260503110200 39 245 0.0 0.0 0.00 0.00 0.00 74 1013.5